Time,TemperatureF,DewpointF,PressureIn,WindDirection,WindDirectionDegrees,WindSpeedMPH,WindSpeedGustMPH,Humidity,HourlyPrecipIn,Conditions,Clouds,dailyrainin,SoftwareType,DateUTC
2013-02-16 00:02:00,17.0,3.0,30.63,WSW,239,2.0,-999.0,55,-99.99,,,0.00,weatherlink.com 1.10,2013-02-16 07:02:00,
2013-02-16 00:17:00,16.8,3.0,30.63,NNW,331,1.0,-999.0,55,-99.99,,,0.00,weatherlink.com 1.10,2013-02-16 07:17:00,
2013-02-16 00:32:00,17.0,3.0,30.64,WNW,295,1.0,-999.0,55,-99.99,,,0.00,weatherlink.com 1.10,2013-02-16 07:32:00,
2013-02-16 00:47:00,17.1,3.0,30.64,SW,236,4.0,-999.0,54,-99.99,,,0.00,weatherlink.com 1.10,2013-02-16 07:47:00,
2013-02-16 01:02:00,17.3,3.0,30.65,WSW,250,4.0,-999.0,53,-99.99,,,0.00,weatherlink.com 1.10,2013-02-16 08:02:00,
2013-02-16 01:17:00,16.7,3.0,30.64,East,84,2.0,-999.0,54,-99.99,,,0.00,weatherlink.com 1.10,2013-02-16 08:17:00,
2013-02-16 01:32:00,16.4,3.0,30.64,East,93,1.0,-999.0,55,-99.99,,,0.00,weatherlink.com 1.10,2013-02-16 08:32:00,
2013-02-16 01:47:00,16.3,3.0,30.66,West,265,10.0,-999.0,55,-99.99,,,0.00,weatherlink.com 1.10,2013-02-16 08:47:00,
2013-02-16 02:02:00,16.4,3.0,30.65,West,277,1.0,-999.0,55,-99.99,,,0.00,weatherlink.com 1.10,2013-02-16 09:02:00,
2013-02-16 02:17:00,16.5,3.0,30.65,South,188,7.0,-999.0,55,-99.99,,,0.00,weatherlink.com 1.10,2013-02-16 09:17:00,
2013-02-16 02:33:00,16.7,3.0,30.64,North,5,3.0,-999.0,55,-99.99,,,0.00,weatherlink.com 1.10,2013-02-16 09:33:00,
2013-02-16 02:47:00,16.5,3.0,30.63,ENE,65,6.0,-999.0,55,-99.99,,,0.00,weatherlink.com 1.10,2013-02-16 09:47:00,
2013-02-16 03:02:00,16.3,3.0,30.64,SSW,201,4.0,-999.0,55,-99.99,,,0.00,weatherlink.com 1.10,2013-02-16 10:02:00,
2013-02-16 03:17:00,16.4,3.0,30.62,NW,305,1.0,-999.0,55,-99.99,,,0.00,weatherlink.com 1.10,2013-02-16 10:17:00,
2013-02-16 03:32:00,17.1,3.0,30.62,NE,48,0.0,-999.0,55,-99.99,,,0.00,weatherlink.com 1.10,2013-02-16 10:32:00,
2013-02-16 03:47:00,17.5,4.0,30.61,East,94,4.0,-999.0,55,-99.99,,,0.00,weatherlink.com 1.10,2013-02-16 10:47:00,
2013-02-16 04:02:00,17.9,4.0,30.61,NW,311,2.0,-999.0,55,-99.99,,,0.00,weatherlink.com 1.10,2013-02-16 11:02:00,
2013-02-16 04:17:00,18.1,4.0,30.61,WSW,242,2.0,-999.0,54,-99.99,,,0.00,weatherlink.com 1.10,2013-02-16 11:17:00,
2013-02-16 04:32:00,18.1,4.0,30.62,ENE,59,2.0,-999.0,54,-99.99,,,0.00,weatherlink.com 1.10,2013-02-16 11:32:00,
2013-02-16 04:47:00,18.1,4.0,30.62,North,355,4.0,-999.0,54,-99.99,,,0.00,weatherlink.com 1.10,2013-02-16 11:47:00,
2013-02-16 05:02:00,17.3,4.0,30.62,WNW,284,2.0,-999.0,55,-99.99,,,0.00,weatherlink.com 1.10,2013-02-16 12:02:00,
2013-02-16 05:17:00,16.9,4.0,30.62,West,280,0.0,-999.0,57,-99.99,,,0.00,weatherlink.com 1.10,2013-02-16 12:17:00,
2013-02-16 05:33:00,16.4,4.0,30.61,South,184,0.0,-999.0,58,-99.99,,,0.00,weatherlink.com 1.10,2013-02-16 12:33:00,
2013-02-16 05:47:00,16.6,4.0,30.61,SW,231,1.0,-999.0,58,-99.99,,,0.00,weatherlink.com 1.10,2013-02-16 12:47:00,
2013-02-16 06:02:00,16.9,4.0,30.61,NNE,26,2.0,-999.0,57,-99.99,,,0.00,weatherlink.com 1.10,2013-02-16 13:02:00,
2013-02-16 06:17:00,17.1,4.0,30.61,ESE,110,1.0,-999.0,56,-99.99,,,0.00,weatherlink.com 1.10,2013-02-16 13:17:00,
2013-02-16 06:32:00,16.9,3.0,30.61,SW,231,2.0,-999.0,55,-99.99,,,0.00,weatherlink.com 1.10,2013-02-16 13:32:00,
2013-02-16 06:47:00,17.0,3.0,30.61,East,90,2.0,-999.0,54,-99.99,,,0.00,weatherlink.com 1.10,2013-02-16 13:47:00,
2013-02-16 07:03:00,17.3,3.0,30.61,SSE,161,2.0,-999.0,54,-99.99,,,0.00,weatherlink.com 1.10,2013-02-16 14:03:00,
2013-02-16 07:17:00,17.6,3.0,30.62,NE,46,2.0,-999.0,53,-99.99,,,0.00,weatherlink.com 1.10,2013-02-16 14:17:00,
2013-02-16 07:32:00,18.0,3.0,30.63,ENE,67,3.0,-999.0,53,-99.99,,,0.00,weatherlink.com 1.10,2013-02-16 14:32:00,
2013-02-16 07:48:00,18.8,4.0,30.64,WSW,247,4.0,-999.0,53,-99.99,,,0.00,weatherlink.com 1.10,2013-02-16 14:48:00,
2013-02-16 08:03:00,19.5,4.0,30.65,WNW,296,6.0,-999.0,52,-99.99,,,0.00,weatherlink.com 1.10,2013-02-16 15:03:00,
2013-02-16 08:17:00,20.1,5.0,30.65,SSW,193,3.0,-999.0,52,-99.99,,,0.00,weatherlink.com 1.10,2013-02-16 15:17:00,
2013-02-16 08:32:00,21.2,5.0,30.66,NE,49,2.0,-999.0,50,-99.99,,,0.00,weatherlink.com 1.10,2013-02-16 15:32:00,
2013-02-16 08:48:00,22.1,6.0,30.65,SSE,150,3.0,-999.0,49,-99.99,,,0.00,weatherlink.com 1.10,2013-02-16 15:48:00,
2013-02-16 09:02:00,21.8,6.0,30.64,SSE,155,2.0,-999.0,50,-99.99,,,0.00,weatherlink.com 1.10,2013-02-16 16:02:00,
2013-02-16 09:18:00,22.3,6.0,30.63,East,99,0.0,-999.0,49,-99.99,,,0.00,weatherlink.com 1.10,2013-02-16 16:18:00,
2013-02-16 09:32:00,22.8,6.0,30.63,WNW,285,1.0,-999.0,49,-99.99,,,0.00,weatherlink.com 1.10,2013-02-16 16:32:00,
2013-02-16 09:47:00,23.8,7.0,30.63,SSW,199,6.0,-999.0,49,-99.99,,,0.00,weatherlink.com 1.10,2013-02-16 16:47:00,
2013-02-16 10:02:00,25.2,7.0,30.64,ENE,63,4.0,-999.0,47,-99.99,,,0.00,weatherlink.com 1.10,2013-02-16 17:02:00,
2013-02-16 10:17:00,25.8,7.0,30.62,East,94,2.0,-999.0,45,-99.99,,,0.00,weatherlink.com 1.10,2013-02-16 17:17:00,
2013-02-16 10:32:00,26.3,8.0,30.61,WSW,242,2.0,-999.0,45,-99.99,,,0.00,weatherlink.com 1.10,2013-02-16 17:32:00,
2013-02-16 10:47:00,26.7,8.0,30.61,East,90,1.0,-999.0,46,-99.99,,,0.00,weatherlink.com 1.10,2013-02-16 17:47:00,
2013-02-16 11:02:00,27.5,9.0,30.59,WNW,291,0.0,-999.0,46,-99.99,,,0.00,weatherlink.com 1.10,2013-02-16 18:02:00,
2013-02-16 11:17:00,28.9,9.0,30.57,ENE,72,6.0,-999.0,44,-99.99,,,0.00,weatherlink.com 1.10,2013-02-16 18:17:00,
2013-02-16 11:32:00,29.6,8.0,30.57,South,187,0.0,-999.0,41,-99.99,,,0.00,weatherlink.com 1.10,2013-02-16 18:32:00,
2013-02-16 11:48:00,29.3,10.0,30.57,SE,142,2.0,-999.0,45,-99.99,,,0.00,weatherlink.com 1.10,2013-02-16 18:48:00,
2013-02-16 12:02:00,29.6,9.0,30.55,SE,144,4.0,-999.0,42,-99.99,,,0.00,weatherlink.com 1.10,2013-02-16 19:02:00,
2013-02-16 12:17:00,30.9,10.0,30.54,East,87,3.0,-999.0,42,-99.99,,,0.00,weatherlink.com 1.10,2013-02-16 19:17:00,
2013-02-16 12:32:00,31.1,11.0,30.52,South,181,2.0,-999.0,43,-99.99,,,0.00,weatherlink.com 1.10,2013-02-16 19:32:00,
2013-02-16 12:47:00,31.3,11.0,30.50,ENE,73,5.0,-999.0,42,-99.99,,,0.00,weatherlink.com 1.10,2013-02-16 19:47:00,
2013-02-16 13:02:00,31.7,11.0,30.50,NE,56,2.0,-999.0,43,-99.99,,,0.00,weatherlink.com 1.10,2013-02-16 20:02:00,
2013-02-16 13:18:00,32.5,10.0,30.48,South,188,5.0,-999.0,39,-99.99,,,0.00,weatherlink.com 1.10,2013-02-16 20:18:00,
2013-02-16 13:32:00,31.9,11.0,30.46,ESE,112,4.0,-999.0,42,-99.99,,,0.00,weatherlink.com 1.10,2013-02-16 20:32:00,
2013-02-16 13:47:00,32.0,11.0,30.45,NE,46,6.0,-999.0,42,-99.99,,,0.00,weatherlink.com 1.10,2013-02-16 20:47:00,
2013-02-16 14:02:00,32.8,11.0,30.44,ESE,109,2.0,-999.0,41,-99.99,,,0.00,weatherlink.com 1.10,2013-02-16 21:02:00,
2013-02-16 14:19:00,33.0,12.0,30.43,South,182,6.0,-999.0,41,-99.99,,,0.00,weatherlink.com 1.10,2013-02-16 21:19:00,
2013-02-16 14:32:00,32.6,11.0,30.42,East,98,8.0,-999.0,40,-99.99,,,0.00,weatherlink.com 1.10,2013-02-16 21:32:00,
2013-02-16 14:47:00,32.7,10.0,30.43,NE,48,2.0,-999.0,39,-99.99,,,0.00,weatherlink.com 1.10,2013-02-16 21:47:00,
2013-02-16 15:02:00,32.2,10.0,30.44,SE,128,8.0,-999.0,40,-99.99,,,0.00,weatherlink.com 1.10,2013-02-16 22:02:00,
2013-02-16 15:17:00,31.7,9.0,30.43,South,189,2.0,-999.0,39,-99.99,,,0.00,weatherlink.com 1.10,2013-02-16 22:17:00,
2013-02-16 15:33:00,31.5,10.0,30.42,SSW,192,0.0,-999.0,40,-99.99,,,0.00,weatherlink.com 1.10,2013-02-16 22:33:00,
2013-02-16 15:47:00,30.6,9.0,30.43,ENE,74,0.0,-999.0,41,-99.99,,,0.00,weatherlink.com 1.10,2013-02-16 22:47:00,
2013-02-16 16:02:00,29.7,8.0,30.42,NE,56,0.0,-999.0,40,-99.99,,,0.00,weatherlink.com 1.10,2013-02-16 23:02:00,
2013-02-16 16:17:00,29.1,8.0,30.42,East,93,1.0,-999.0,41,-99.99,,,0.00,weatherlink.com 1.10,2013-02-16 23:17:00,
2013-02-16 16:32:00,28.4,7.0,30.43,ESE,104,2.0,-999.0,41,-99.99,,,0.00,weatherlink.com 1.10,2013-02-16 23:32:00,
2013-02-16 16:47:00,27.8,6.0,30.42,East,79,2.0,-999.0,40,-99.99,,,0.00,weatherlink.com 1.10,2013-02-16 23:47:00,
2013-02-16 17:02:00,27.2,6.0,30.42,ESE,103,0.0,-999.0,40,-99.99,,,0.00,weatherlink.com 1.10,2013-02-17 00:02:00,
2013-02-16 17:17:00,26.2,5.0,30.41,SW,231,1.0,-999.0,41,-99.99,,,0.00,weatherlink.com 1.10,2013-02-17 00:17:00,
2013-02-16 17:32:00,25.3,5.0,30.40,West,261,0.0,-999.0,42,-99.99,,,0.00,weatherlink.com 1.10,2013-02-17 00:32:00,
2013-02-16 17:48:00,24.3,5.0,30.40,West,273,1.0,-999.0,43,-99.99,,,0.00,weatherlink.com 1.10,2013-02-17 00:48:00,
2013-02-16 18:02:00,23.9,4.0,30.40,West,273,0.0,-999.0,43,-99.99,,,0.00,weatherlink.com 1.10,2013-02-17 01:02:00,
2013-02-16 18:17:00,22.9,4.0,30.40,WNW,287,0.0,-999.0,44,-99.99,,,0.00,weatherlink.com 1.10,2013-02-17 01:17:00,
2013-02-16 18:32:00,21.9,2.0,30.39,WNW,287,0.0,-999.0,43,-99.99,,,0.00,weatherlink.com 1.10,2013-02-17 01:32:00,
2013-02-16 18:47:00,20.9,3.0,30.40,WNW,287,2.0,-999.0,45,-99.99,,,0.00,weatherlink.com 1.10,2013-02-17 01:47:00,
2013-02-16 19:02:00,20.5,3.0,30.40,WNW,287,0.0,-999.0,47,-99.99,,,0.00,weatherlink.com 1.10,2013-02-17 02:02:00,
2013-02-16 19:17:00,19.7,2.0,30.40,WNW,287,0.0,-999.0,46,-99.99,,,0.00,weatherlink.com 1.10,2013-02-17 02:17:00,
2013-02-16 19:32:00,19.1,2.0,30.39,WNW,283,0.0,-999.0,47,-99.99,,,0.00,weatherlink.com 1.10,2013-02-17 02:32:00,
2013-02-16 19:48:00,18.9,1.0,30.38,West,274,2.0,-999.0,45,-99.99,,,0.00,weatherlink.com 1.10,2013-02-17 02:48:00,
2013-02-16 20:03:00,19.7,0.0,30.38,South,171,2.0,-999.0,42,-99.99,,,0.00,weatherlink.com 1.10,2013-02-17 03:03:00,
2013-02-16 20:17:00,20.7,0.0,30.37,SSW,213,0.0,-999.0,41,-99.99,,,0.00,weatherlink.com 1.10,2013-02-17 03:17:00,
2013-02-16 20:32:00,21.0,0.0,30.36,SW,218,0.0,-999.0,40,-99.99,,,0.00,weatherlink.com 1.10,2013-02-17 03:32:00,
2013-02-16 20:47:00,20.6,0.0,30.36,SW,218,0.0,-999.0,40,-99.99,,,0.00,weatherlink.com 1.10,2013-02-17 03:47:00,
2013-02-16 21:02:00,19.7,-1.0,30.36,SW,228,3.0,-999.0,40,-99.99,,,0.00,weatherlink.com 1.10,2013-02-17 04:02:00,
2013-02-16 21:18:00,19.4,0.0,30.35,West,259,2.0,-999.0,42,-99.99,,,0.00,weatherlink.com 1.10,2013-02-17 04:18:00,
2013-02-16 21:32:00,19.1,-1.0,30.34,WSW,250,0.0,-999.0,42,-99.99,,,0.00,weatherlink.com 1.10,2013-02-17 04:32:00,
2013-02-16 21:47:00,18.9,-1.0,30.34,NNE,19,0.0,-999.0,42,-99.99,,,0.00,weatherlink.com 1.10,2013-02-17 04:47:00,
2013-02-16 22:03:00,18.2,-2.0,30.34,NNE,19,0.0,-999.0,42,-99.99,,,0.00,weatherlink.com 1.10,2013-02-17 05:03:00,
2013-02-16 22:17:00,18.4,-1.0,30.33,SSE,162,2.0,-999.0,43,-99.99,,,0.00,weatherlink.com 1.10,2013-02-17 05:17:00,
2013-02-16 22:32:00,19.7,-1.0,30.32,WNW,282,1.0,-999.0,41,-99.99,,,0.00,weatherlink.com 1.10,2013-02-17 05:32:00,
2013-02-16 22:47:00,19.6,-1.0,30.32,WNW,282,0.0,-999.0,41,-99.99,,,0.00,weatherlink.com 1.10,2013-02-17 05:47:00,
2013-02-16 23:02:00,18.5,-1.0,30.31,WNW,282,0.0,-999.0,42,-99.99,,,0.00,weatherlink.com 1.10,2013-02-17 06:02:00,
2013-02-16 23:32:00,15.1,-2.0,30.30,WNW,282,0.0,-999.0,46,-99.99,,,0.00,weatherlink.com 1.10,2013-02-17 06:32:00,
2013-02-16 23:48:00,15.3,-2.0,30.29,WNW,282,0.0,-999.0,46,-99.99,,,0.00,weatherlink.com 1.10,2013-02-17 06:48:00,